Meteo orario Abano Terme

Oggi, 24 Giugno, Giovedi

Tempo Temperatura Precipitazioni Vento Pressione Umidità
00:00 +20°C° 0.2 mm 2 m/s 760 mm Hg 89%
01:00 +20°C° 0.2 mm 2 m/s 760 mm Hg 89%
02:00 +21°C° 0 mm 1 m/s 760 mm Hg 89%
03:00 +21°C° 0 mm 1 m/s 760 mm Hg 88%
04:00 +21°C° 0 mm 1 m/s 760 mm Hg 88%
05:00 +22°C° 0 mm 1 m/s 760 mm Hg 84%
06:00 +23°C° 0 mm 1 m/s 760 mm Hg 81%
07:00 +24°C° 0 mm 1 m/s 760 mm Hg 77%
08:00 +26°C° 0 mm 1 m/s 760 mm Hg 71%
09:00 +27°C° 0 mm 2 m/s 760 mm Hg 65%
10:00 +29°C° 0 mm 2 m/s 761 mm Hg 59%
11:00 +30°C° 0 mm 2 m/s 760 mm Hg 56%
12:00 +31°C° 0 mm 2 m/s 760 mm Hg 53%
13:00 +32°C° 0 mm 2 m/s 760 mm Hg 50%
14:00 +32°C° 0 mm 2 m/s 759 mm Hg 49%
15:00 +32°C° 0 mm 2 m/s 759 mm Hg 47%
16:00 +33°C° 0 mm 1 m/s 758 mm Hg 45%
17:00 +31°C° 0 mm 2 m/s 758 mm Hg 52%
18:00 +30°C° 0 mm 2 m/s 758 mm Hg 59%
19:00 +28°C° 0 mm 3 m/s 758 mm Hg 67%
20:00 +27°C° 0.1 mm 2 m/s 759 mm Hg 67%
21:00 +25°C° 0.1 mm 2 m/s 759 mm Hg 67%
22:00 +24°C° 0.1 mm 2 m/s 759 mm Hg 67%
23:00 +22°C° 0 mm 3 m/s 759 mm Hg 65%

Domani, 25 Giugno, Venerdi

Tempo Temperatura Precipitazioni Vento Pressione Umidità
00:00 +21°C° 0 mm 3 m/s 759 mm Hg 64%
01:00 +20°C° 0 mm 3 m/s 759 mm Hg 63%
02:00 +19°C° 0 mm 3 m/s 759 mm Hg 66%
03:00 +19°C° 0 mm 3 m/s 759 mm Hg 69%
04:00 +18°C° 0 mm 3 m/s 759 mm Hg 72%
05:00 +19°C° 0 mm 3 m/s 759 mm Hg 72%
06:00 +20°C° 0 mm 3 m/s 759 mm Hg 72%
07:00 +21°C° 0 mm 3 m/s 760 mm Hg 72%
08:00 +24°C° 0 mm 3 m/s 760 mm Hg 67%
09:00 +26°C° 0 mm 3 m/s 760 mm Hg 61%
10:00 +27°C° 0 mm 2 m/s 760 mm Hg 56%
11:00 +28°C° 0.1 mm 2 m/s 760 mm Hg 52%
12:00 +29°C° 0.1 mm 2 m/s 759 mm Hg 48%
13:00 +30°C° 0.1 mm 2 m/s 759 mm Hg 45%
14:00 +30°C° 0.1 mm 2 m/s 759 mm Hg 42%
15:00 +30°C° 0.1 mm 1 m/s 758 mm Hg 40%
16:00 +31°C° 0.1 mm 1 m/s 758 mm Hg 37%
17:00 +29°C° 0 mm 1 m/s 758 mm Hg 45%
18:00 +28°C° 0 mm 2 m/s 758 mm Hg 52%
19:00 +27°C° 0 mm 2 m/s 758 mm Hg 60%
20:00 +25°C° 0 mm 2 m/s 758 mm Hg 63%
21:00 +24°C° 0 mm 1 m/s 759 mm Hg 66%
22:00 +22°C° 0 mm 1 m/s 759 mm Hg 69%
23:00 +22°C° 0 mm 1 m/s 759 mm Hg 71%

Dopodomani, 26 Giugno, Sabato

Tempo Temperatura Precipitazioni Vento Pressione Umidità
00:00 +21°C° 0 mm 1 m/s 760 mm Hg 72%
01:00 +21°C° 0 mm 1 m/s 760 mm Hg 74%
02:00 +20°C° 0 mm 2 m/s 760 mm Hg 75%
03:00 +19°C° 0 mm 2 m/s 760 mm Hg 77%
04:00 +19°C° 0 mm 2 m/s 760 mm Hg 78%
05:00 +20°C° 0 mm 2 m/s 760 mm Hg 75%
06:00 +22°C° 0 mm 1 m/s 761 mm Hg 71%
07:00 +23°C° 0 mm 1 m/s 761 mm Hg 68%
08:00 +25°C° 0 mm 1 m/s 761 mm Hg 63%
09:00 +26°C° 0 mm 1 m/s 761 mm Hg 58%
10:00 +28°C° 0 mm 1 m/s 761 mm Hg 53%
11:00 +29°C° 0 mm 1 m/s 760 mm Hg 50%
12:00 +30°C° 0 mm 1 m/s 760 mm Hg 47%
13:00 +31°C° 0 mm 1 m/s 760 mm Hg 44%
14:00 +31°C° 0 mm 1 m/s 760 mm Hg 43%
15:00 +31°C° 0 mm 1 m/s 759 mm Hg 42%
16:00 +31°C° 0 mm 1 m/s 759 mm Hg 41%
17:00 +30°C° 0 mm 1 m/s 759 mm Hg 47%
18:00 +29°C° 0 mm 1 m/s 759 mm Hg 53%
19:00 +28°C° 0 mm 2 m/s 759 mm Hg 59%
20:00 +26°C° 0 mm 1 m/s 759 mm Hg 61%
21:00 +25°C° 0 mm 1 m/s 759 mm Hg 63%
22:00 +24°C° 0 mm 1 m/s 760 mm Hg 65%
23:00 +23°C° 0 mm 1 m/s 760 mm Hg 67%

27 Giugno, Domenica

Tempo Temperatura Precipitazioni Vento Pressione Umidità
00:00 +23°C° 0 mm 1 m/s 760 mm Hg 68%
01:00 +22°C° 0 mm 1 m/s 760 mm Hg 69%
02:00 +22°C° 0 mm 1 m/s 760 mm Hg 71%
03:00 +22°C° 0 mm 1 m/s 760 mm Hg 72%
04:00 +21°C° 0 mm 1 m/s 760 mm Hg 73%
05:00 +23°C° 0 mm 1 m/s 760 mm Hg 71%
06:00 +24°C° 0 mm 1 m/s 760 mm Hg 68%
07:00 +25°C° 0 mm 1 m/s 760 mm Hg 65%
08:00 +27°C° 0 mm 1 m/s 760 mm Hg 60%
09:00 +28°C° 0 mm 1 m/s 760 mm Hg 55%
10:00 +30°C° 0 mm 1 m/s 760 mm Hg 50%
11:00 +31°C° 0 mm 2 m/s 759 mm Hg 46%
12:00 +31°C° 0 mm 2 m/s 759 mm Hg 43%
13:00 +32°C° 0 mm 2 m/s 759 mm Hg 39%
14:00 +32°C° 0 mm 2 m/s 759 mm Hg 39%
15:00 +32°C° 0 mm 2 m/s 759 mm Hg 40%
16:00 +33°C° 0 mm 3 m/s 759 mm Hg 40%
17:00 +31°C° 0 mm 2 m/s 759 mm Hg 46%
18:00 +30°C° 0 mm 2 m/s 759 mm Hg 51%
19:00 +28°C° 0 mm 2 m/s 759 mm Hg 57%
20:00 +27°C° 0 mm 2 m/s 759 mm Hg 58%
21:00 +26°C° 0 mm 1 m/s 759 mm Hg 59%
22:00 +24°C° 0 mm 1 m/s 759 mm Hg 59%
23:00 +24°C° 0 mm 1 m/s 759 mm Hg 60%

28 Giugno, Lunedi

Tempo Temperatura Precipitazioni Vento Pressione Umidità
00:00 +24°C° 0 mm 2 m/s 759 mm Hg 61%
01:00 +23°C° 0 mm 2 m/s 759 mm Hg 62%
02:00 +23°C° 0 mm 2 m/s 759 mm Hg 63%
03:00 +23°C° 0 mm 2 m/s 759 mm Hg 65%
04:00 +21°C° 0 mm 2 m/s 759 mm Hg 66%
05:00 +23°C° 0 mm 2 m/s 759 mm Hg 66%
06:00 +24°C° 0 mm 2 m/s 759 mm Hg 65%
07:00 +25°C° 0 mm 2 m/s 759 mm Hg 64%
08:00 +27°C° 0 mm 2 m/s 759 mm Hg 59%
09:00 +29°C° 0 mm 2 m/s 759 mm Hg 54%
10:00 +30°C° 0 mm 2 m/s 759 mm Hg 49%
11:00 +31°C° 0 mm 2 m/s 759 mm Hg 46%
12:00 +33°C° 0 mm 3 m/s 759 mm Hg 43%
13:00 +34°C° 0 mm 3 m/s 759 mm Hg 41%
14:00 +34°C° 0 mm 3 m/s 759 mm Hg 41%
15:00 +34°C° 0 mm 3 m/s 758 mm Hg 42%
16:00 +33°C° 0 mm 3 m/s 758 mm Hg 42%
17:00 +31°C° 0 mm 3 m/s 758 mm Hg 49%
18:00 +29°C° 0 mm 3 m/s 758 mm Hg 56%
19:00 +28°C° 0 mm 2 m/s 758 mm Hg 62%
20:00 +27°C° 0 mm 2 m/s 758 mm Hg 63%
21:00 +25°C° 0 mm 2 m/s 758 mm Hg 65%
22:00 +24°C° 0 mm 1 m/s 758 mm Hg 66%
23:00 +24°C° 0 mm 1 m/s 758 mm Hg 66%

29 Giugno, Martedi

Tempo Temperatura Precipitazioni Vento Pressione Umidità
00:00 +24°C° 0 mm 1 m/s 758 mm Hg 66%
01:00 +23°C° 0 mm 1 m/s 758 mm Hg 66%
02:00 +23°C° 0 mm 1 m/s 758 mm Hg 67%
03:00 +23°C° 0 mm 1 m/s 758 mm Hg 69%
04:00 +22°C° 0 mm 1 m/s 758 mm Hg 70%
05:00 +23°C° 0 mm 1 m/s 758 mm Hg 68%
06:00 +22°C° 0 mm 0 m/s 758 mm Hg 66%
07:00 +24°C° 0 mm 0 m/s 759 mm Hg 64%
08:00 +25°C° 0 mm 0 m/s 759 mm Hg 58%
09:00 +29°C° 0 mm 1 m/s 759 mm Hg 53%
10:00 +31°C° 0 mm 1 m/s 759 mm Hg 47%
11:00 +32°C° 0 mm 1 m/s 758 mm Hg 45%
12:00 +32°C° 0 mm 1 m/s 758 mm Hg 42%
13:00 +34°C° 0 mm 2 m/s 758 mm Hg 40%
14:00 +34°C° 0 mm 2 m/s 758 mm Hg 40%
15:00 +35°C° 0 mm 2 m/s 757 mm Hg 40%
16:00 +35°C° 0 mm 2 m/s 757 mm Hg 40%
17:00 +31°C° 0.1 mm 2 m/s 757 mm Hg 49%
18:00 +29°C° 0.1 mm 3 m/s 757 mm Hg 58%
19:00 +27°C° 0.1 mm 3 m/s 758 mm Hg 67%
20:00 +26°C° 0.1 mm 2 m/s 758 mm Hg 69%
21:00 +25°C° 0.1 mm 2 m/s 758 mm Hg 72%
22:00 +24°C° 0.1 mm 2 m/s 758 mm Hg 74%
23:00 +23°C° 0 mm 2 m/s 758 mm Hg 75%
Mostrare altro

Abbiamo bisogno del tuo consenso

Meteoprog e i nostri fornitori di servizi possono memorizzare e accedere a dati personali come cookie, identificatori di dispositivi o altre tecnologie simili sul tuo dispositivo e possono elaborare tali dati per personalizzare i contenuti e gli annunci, nonché fornire funzionalità dei social media e analizzarne il traffico.

  • Archiviare e/o accedere alle informazioni sul tuo dispositivo

    Cookie, identificatori di dispositivi o altre informazioni possono essere memorizzati o resi accessibili sul tuo dispositivo per le finalità sopra indicate.

  • Annunci e contenuti personalizzati, misurazione di annunci e contenuti, approfondimenti sul pubblico e sviluppo di prodotti

    Gli annunci e i contenuti possono essere personalizzati in base a un profilo. È possibile aggiungere più dati per personalizzare meglio annunci e contenuti. È possibile misurare il rendimento degli annunci e dei contenuti. È possibile ricavare informazioni sul pubblico che ha visto gli annunci e i contenuti. Tali dati possono essere utilizzati per sviluppare o migliorare l'esperienza, i sistemi e il software dell'utente.

Cliccando su “Accetto”, acconsenti all'uso di cookie, identificatori di dispositivo, web beacon o altre tecnologie simili. Puoi modificare le impostazioni nel browser del tuo dispositivo.

Per determinati scopi, è possibile fare affidamento su interessi legali, piuttosto che sul consenso. Puoi approfondire questo argomento consultando la nostra Informativa sulla privacy e sui cookie.